Location: Unspecified
(0.0000°N, 0.0000°E)
Time: 14:14:40
(UTC+00:00)

Vanguard 1 - Visible Passes

Search period start: 21 February 2019 00:00
Search period end: 03 March 2019 00:00
Orbit: 650 x 3833 km, 34.2° (Epoch: 20 February)

Date Brightness Start Highest point End Pass type
(mag) Time Alt. Az. Time Alt. Az. Time Alt. Az.
21 Feb 14.0 00:20:35 10° WSW 00:21:06 10° WSW 00:21:06 10° WSW visible
21 Feb 12.8 19:34:29 10° NW 19:57:56 89° NE 20:16:38 14° SE visible
21 Feb 13.1 22:04:14 10° W 22:24:43 40° SW 22:29:29 35° S visible
22 Feb 12.9 19:56:09 10° WNW 20:19:37 77° SW 20:37:49 14° SE visible
22 Feb 13.3 22:28:12 10° W 22:46:29 31° SW 22:50:39 28° SSW visible
23 Feb 13.0 17:53:02 10° NW 18:13:31 63° NE 18:35:54 10° ESE visible
23 Feb 13.0 20:18:10 10° WNW 20:41:17 63° SW 20:58:53 14° SE visible
23 Feb 13.5 22:53:02 10° W 23:08:31 24° SSW 23:11:43 23° SSW visible
24 Feb 13.0 18:14:06 10° NW 18:35:17 76° NE 18:57:50 10° ESE visible
24 Feb 13.2 20:40:39 10° WNW 21:03:01 51° SW 21:19:48 13° SSE visible
24 Feb 13.6 23:18:49 10° WSW 23:30:53 18° SSW 23:32:36 18° SSW visible
25 Feb 13.0 18:35:22 10° NW 18:57:01 90° SW 19:19:26 10° SE visible
25 Feb 13.4 21:03:42 10° W 21:24:54 41° SW 21:40:32 13° SSE visible
25 Feb 13.8 23:45:29 10° SW 23:53:19 14° SSW 23:53:19 14° SSW visible
26 Feb 12.2 04:44:26 10° S 04:47:37 14° SSE 04:50:18 10° ESE visible
26 Feb 13.1 18:56:54 10° WNW 19:18:45 76° SW 19:40:45 10° SE visible
26 Feb 13.6 21:27:28 10° W 21:46:59 33° SSW 22:01:03 13° SSE visible
27 Feb 13.9 00:13:07 10° SSW 00:13:49 10° SSW 00:13:49 10° SSW visible
27 Feb 11.6 05:04:16 10° SSW 05:09:06 23° SSE 05:12:52 10° E visible
27 Feb 13.3 19:18:47 10° WNW 19:40:33 63° SW 20:01:53 10° SE visible
27 Feb 13.7 21:52:02 10° W 22:09:23 26° SSW 22:21:20 13° SSE visible
28 Feb 10.6 05:24:46 10° SW 05:30:23 41° SSE 05:34:37 10° ENE visible
28 Feb 13.5 19:41:06 10° WNW 20:02:31 51° SW 20:22:52 10° SE visible
28 Feb 13.7 22:17:27 10° WSW 22:32:08 20° SSW 22:41:27 14° S visible
01 Mar 12.5 03:27:00 12° S 03:29:29 14° SSE 03:32:45 10° SE visible
01 Mar 9.6 05:45:40 10° SW 05:51:28 77° SE 05:55:52 10° ENE visible
01 Mar 13.6 20:03:58 10° W 20:24:39 41° SW 20:43:46 10° SSE visible
01 Mar 13.7 22:43:30 10° SW 22:55:11 17° SSW 23:01:22 14° S visible
02 Mar 12.0 03:47:53 16° S 03:51:18 21° SSE 03:55:32 10° ESE visible
02 Mar 13.2 17:58:29 10° WNW 18:17:55 74° SW 18:41:28 10° SE visible
02 Mar 13.8 20:27:29 10° W 20:47:04 33° SSW 21:04:38 10° SSE visible
02 Mar 13.8 23:09:39 10° SW 23:18:30 14° SSW 23:21:09 13° S visible
